User: anonymous   Login
Location: Bethera
(33.2010°N, 79.7880°W)
Time: 04:24:40
(UTC-04:00)
Language:

Cosmos 1833 Rocket - Orbit

View from above orbital plane
View from above orbital plane
View from above satellite
View from above satellite

Ground track
Ground track

The orbit data is extracted from the following two-line orbital elements,

1 17590U 87027B   14302.67533761  .00000224  00000-0  13610-3 0  8164
2 17590 071.0056 014.5684 0006892 314.1953 045.8604 14.16657844427941
Epoch (UTC): 29 October 2014 16:12:29
Eccentricity: 0.0006892
inclination: 71.0056°
perigee height: 832 km
apogee height: 841 km
right ascension of ascending node: 14.5684°
argument of perigee: 314.1953°
revolutions per day: 14.16657844
mean anomaly at epoch: 45.8604°
orbit number at epoch: 42794

The dashed part of the orbit path shows where the satellite is in the earth's shadow,  

DLR